N6OPV Weather Reports


time (UTC)temp
F
wind
direction
speed
knots
gust
knots
rain 1hr
in
rain 24hr
in
rain mn
in
humidity
%
barometer
mb
20260506222459 69 311 2.6 9.6 0.00 0.00 0.00 48 1016.4
20260506222001 69 311 2.6 9.6 0.00 0.00 0.00 49 1016.3
20260506220959 68 345 2.6 8.7 0.00 0.00 0.00 50 1016.5
20260506220002 68 288 3.5 10.4 0.00 0.00 0.00 51 1016.6
20260506215500 68 296 3.5 10.4 0.00 0.00 0.00 49 1016.6
20260506215000 68 321 4.3 10.4 0.00 0.00 0.00 50 1016.8
20260506214501 68 281 4.3 10.4 0.00 0.00 0.00 49 1016.7
20260506214001 69 345 3.5 11.3 0.00 0.00 0.00 48 1016.8
20260506213501 69 265 3.5 11.3 0.00 0.00 0.00 48 1016.8
20260506213001 69 333 3.5 11.3 0.00 0.00 0.00 47 1016.8
20260506212501 69 328 3.5 11.3 0.00 0.00 0.00 46 1016.8
20260506212001 70 5 2.6 8.7 0.00 0.00 0.00 47 1016.9
20260506211459 70 266 2.6 8.7 0.00 0.00 0.00 49 1016.9
20260506211000 69 267 3.5 10.4 0.00 0.00 0.00 49 1017.0
20260506205959 69 302 3.5 11.3 0.00 0.00 0.00 49 1017.0
20260506205459 68 293 3.5 9.6 0.00 0.00 0.00 49 1017.0
20260506204959 69 354 2.6 8.7 0.00 0.00 0.00 49 1017.0
20260506204501 68 213 3.5 11.3 0.00 0.00 0.00 49 1017.0
20260506203959 68 310 3.5 11.3 0.00 0.00 0.00 50 1017.0
20260506203500 68 292 3.5 11.3 0.00 0.00 0.00 48 1017.2
20260506202959 69 304 3.5 11.3 0.00 0.00 0.00 49 1017.2
20260506201959 69 318 3.5 9.6 0.00 0.00 0.00 49 1017.1
20260506201459 69 320 3.5 8.7 0.00 0.00 0.00 48 1017.1
20260506201000 69 321 3.5 9.6 0.00 0.00 0.00 48 1017.1
20260506200459 70 213 2.6 11.3 0.00 0.00 0.00 47 1017.0
20260506200003 70 270 3.5 11.3 0.00 0.00 0.00 47 1017.0
20260506195501 71 271 2.6 7.0 0.00 0.00 0.00 46 1017.0
20260506195001 71 302 2.6 7.8 0.00 0.00 0.00 47 1017.0
20260506194501 71 283 2.6 7.8 0.00 0.00 0.00 46 1017.0
20260506194002 71 250 2.6 8.7 0.00 0.00 0.00 46 1017.1
20260506193000 72 290 2.6 7.0 0.00 0.00 0.00 44 1017.0
20260506192501 72 214 2.6 8.7 0.00 0.00 0.00 45 1017.0
20260506192001 72 17 2.6 8.7 0.00 0.00 0.00 45 1017.0
20260506191501 72 180 2.6 7.8 0.00 0.00 0.00 45 1017.0
20260506191000 72 355 2.6 8.7 0.00 0.00 0.00 45 1017.0
20260506190501 71 248 2.6 8.7 0.00 0.00 0.00 46 1017.1
20260506190002 71 295 2.6 12.2 0.00 0.00 0.00 46 1017.1
20260506185501 71 342 2.6 12.2 0.00 0.00 0.00 46 1017.1
20260506185001 71 331 2.6 9.6 0.00 0.00 0.00 46 1017.1
20260506184501 71 212 2.6 9.6 0.00 0.00 0.00 46 1017.1
20260506184001 71 239 2.6 8.7 0.00 0.00 0.00 47 1017.1
20260506183500 71 305 2.6 7.0 0.00 0.00 0.00 46 1017.1
20260506182501 70 218 3.5 8.7 0.00 0.00 0.00 47 1017.3
20260506182001 71 193 3.5 8.7 0.00 0.00 0.00 46 1017.5
20260506181500 71 238 3.5 8.7 0.00 0.00 0.00 46 1017.4
20260506181001 71 244 2.6 8.7 0.00 0.00 0.00 46 1017.4
20260506180501 72 306 0.9 4.3 0.00 0.00 0.00 45 1017.5
20260506175459 72 233 0.9 3.5 0.00 0.00 0.00 42 1017.6
20260506174959 71 251 0.9 3.5 0.00 0.00 0.00 44 1017.7
20260506174459 71 122 0.9 4.3 0.00 0.00 0.00 44 1017.7
20260506174000 71 295 0.9 4.3 0.00 0.00 0.00 44 1017.8
20260506173459 71 255 0.9 4.3 0.00 0.00 0.00 45 1017.8
20260506172459 70 225 0.9 3.5 0.00 0.00 0.00 46 1017.8
20260506171959 70 224 0.9 3.5 0.00 0.00 0.00 47 1017.8
20260506171500 70 96 0.9 3.5 0.00 0.00 0.00 46 1017.8
20260506170959 69 269 1.7 4.3 0.00 0.00 0.00 47 1017.8
20260506170001 70 233 0.9 2.6 0.00 0.00 0.00 48 1017.8
20260506165501 70 299 0.9 4.3 0.00 0.00 0.00 47 1017.7
20260506165001 69 212 0.9 4.3 0.00 0.00 0.00 49 1017.7
20260506164501 69 354 0.0 2.6 0.00 0.00 0.00 50 1017.7
20260506164000 68 203 0.0 1.7 0.00 0.00 0.00 54 1017.7
20260506163501 67 136 0.0 1.7 0.00 0.00 0.00 56 1017.8
20260506163001 67 137 0.9 1.7 0.00 0.00 0.00 56 1017.7
20260506162500 66 109 0.0 1.7 0.00 0.00 0.00 57 1017.7
20260506162000 66 217 0.0 1.7 0.00 0.00 0.00 60 1017.8
20260506161501 64 132 0.9 2.6 0.00 0.00 0.00 63 1017.9
20260506161000 63 112 1.7 3.5 0.00 0.00 0.00 63 1017.9
20260506160500 63 105 1.7 3.5 0.00 0.00 0.00 62 1017.8
20260506155459 63 165 0.9 3.5 0.00 0.00 0.00 63 1017.9
20260506154500 62 146 0.9 3.5 0.00 0.00 0.00 67 1017.9
20260506153959 60 115 0.9 3.5 0.00 0.00 0.00 68 1018.0
20260506153459 60 110 0.0 1.7 0.00 0.00 0.00 68 1018.0
20260506152500 59 138 0.0 2.6 0.00 0.00 0.00 69 1018.1
20260506151959 59 214 0.0 1.7 0.00 0.00 0.00 71 1018.1
20260506151459 58 319 0.0 0.9 0.00 0.00 0.00 73 1018.1
20260506150959 57 121 0.0 0.9 0.00 0.00 0.00 75 1018.1
20260506150459 56 120 0.0 0.9 0.00 0.00 0.00 76 1018.1
20260506150002 55 248 0.0 0.9 0.00 0.00 0.00 77 1018.2
20260506145501 54 213 0.0 2.6 0.00 0.00 0.00 79 1018.1
20260506145000 54 117 0.0 2.6 0.00 0.00 0.00 80 1018.2
20260506144501 54 259 0.0 0.9 0.00 0.00 0.00 84 1018.1
20260506144000 53 124 0.0 0.9 0.00 0.00 0.00 85 1018.1
20260506143500 52 34 0.0 0.9 0.00 0.00 0.00 85 1018.0
20260506142501 50 120 0.0 0.9 0.00 0.00 0.00 84 1018.0
20260506142001 50 117 0.0 0.9 0.00 0.00 0.00 84 1018.0
20260506141500 49 117 0.0 0.9 0.00 0.00 0.00 84 1017.9
20260506141001 49 112 0.0 0.9 0.00 0.00 0.00 84 1017.8
20260506140501 49 112 0.0 0.9 0.00 0.00 0.00 84 1017.8
20260506140001 49 224 0.0 0.9 0.00 0.00 0.00 84 1017.6
20260506135500 49 159 0.0 0.0 0.00 0.00 0.00 84 1017.5
20260506135000 49 160 0.0 0.9 0.00 0.00 0.00 84 1017.5
20260506134500 49 118 0.0 0.9 0.00 0.00 0.00 84 1017.5
20260506134000 49 68 0.0 0.0 0.00 0.00 0.00 84 1017.6
20260506133459 49 6 0.0 0.9 0.00 0.00 0.00 83 1017.6
20260506133000 49 358 0.0 1.7 0.00 0.00 0.00 83 1017.5
20260506132500 49 124 0.9 1.7 0.00 0.00 0.00 84 1017.3
20260506131959 49 109 0.0 1.7 0.00 0.00 0.00 84 1017.2
20260506130959 48 339 0.0 0.0 0.00 0.00 0.00 83 1017.3
20260506130459 48 338 0.0 0.9 0.00 0.00 0.00 83 1017.1
20260506130002 48 339 0.0 0.9 0.00 0.00 0.00 83 1017.2
20260506125501 48 264 0.0 0.9 0.00 0.00 0.00 83 1017.1
20260506125002 48 268 0.0 0.9 0.00 0.00 0.00 83 1017.0
20260506124500 48 218 0.0 0.0 0.00 0.00 0.00 83 1017.0
20260506124001 48 218 0.0 0.0 0.00 0.00 0.00 83 1016.9
20260506123001 49 218 0.0 0.0 0.00 0.00 0.00 83 1017.0
20260506122000 49 146 0.0 0.0 0.00 0.00 0.00 83 1016.8
20260506121501 49 146 0.0 0.0 0.00 0.00 0.00 82 1016.9
20260506121000 49 146 0.0 0.0 0.00 0.00 0.00 82 1016.9
20260506120502 49 146 0.0 0.0 0.00 0.00 0.00 82 1016.9
20260506115459 49 146 0.0 0.0 0.00 0.00 0.00 81 1017.0
20260506115000 49 147 0.0 0.0 0.00 0.00 0.00 81 1017.0
20260506114459 49 140 0.0 0.0 0.00 0.00 0.00 81 1017.0
20260506114000 49 140 0.0 0.0 0.00 0.00 0.00 81 1017.1
20260506113459 49 141 0.0 0.0 0.00 0.00 0.00 81 1017.1
20260506112959 49 124 0.0 0.0 0.00 0.00 0.00 81 1017.1
20260506111959 49 126 0.0 0.0 0.00 0.00 0.00 80 1017.2
20260506111002 49 126 0.0 0.0 0.00 0.00 0.00 81 1017.1
20260506110459 49 165 0.0 0.0 0.00 0.00 0.00 79 1017.2
20260506105500 49 165 0.0 0.0 0.00 0.00 0.00 78 1017.1
20260506103959 49 109 0.0 0.9 0.00 0.00 0.00 78 1017.1
20260506102959 50 136 0.0 0.9 0.00 0.00 0.00 78 1017.1
20260506102500 50 41 0.0 0.9 0.00 0.00 0.00 77 1017.1
20260506102000 50 40 0.0 0.9 0.00 0.00 0.00 77 1017.1
20260506101459 50 345 0.0 0.0 0.00 0.00 0.00 76 1017.1
20260506100959 50 345 0.0 0.9 0.00 0.00 0.00 76 1017.1
20260506100459 50 345 0.0 0.9 0.00 0.00 0.00 76 1017.1
20260506095500 50 1 0.0 0.9 0.00 0.00 0.00 75 1017.0
20260506094959 50 1 0.0 0.9 0.00 0.00 0.00 75 1017.1
20260506094459 50 110 0.0 0.0 0.00 0.00 0.00 74 1017.0
20260506094000 50 110 0.0 0.0 0.00 0.00 0.00 74 1017.0
20260506092959 51 110 0.0 0.9 0.00 0.00 0.00 74 1017.0
20260506092459 51 110 0.0 0.9 0.00 0.00 0.00 74 1017.0
20260506092000 51 110 0.0 0.9 0.00 0.00 0.00 74 1017.1
20260506091459 51 110 0.0 0.9 0.00 0.00 0.00 74 1017.2
20260506091000 51 116 0.0 0.9 0.00 0.00 0.00 74 1017.2
20260506090500 51 165 0.0 0.0 0.00 0.00 0.00 73 1017.3
20260506090001 51 165 0.0 0.0 0.00 0.00 0.00 73 1017.2
20260506085500 51 159 0.0 0.9 0.00 0.00 0.00 73 1017.3
20260506085000 51 158 0.0 0.9 0.00 0.00 0.00 73 1017.4
20260506084458 52 294 0.0 0.9 0.00 0.00 0.00 72 1017.3
20260506084000 52 245 0.0 0.9 0.00 0.00 0.00 73 1017.3
20260506082959 52 206 0.0 0.9 0.00 0.00 0.00 72 1017.4
20260506082459 52 243 0.0 0.9 0.00 0.00 0.00 72 1017.4
20260506082001 52 313 0.0 0.9 0.00 0.00 0.00 71 1017.5
20260506081458 52 269 0.0 0.9 0.00 0.00 0.00 71 1017.5
20260506081000 52 265 0.0 1.7 0.00 0.00 0.00 71 1017.5
20260506073500 53 36 0.0 2.6 0.00 0.00 0.00 70 1017.5
20260506073000 54 30 0.0 2.6 0.00 0.00 0.00 70 1017.4
20260506072500 54 309 0.0 1.7 0.00 0.00 0.00 70 1017.4
20260506072001 54 340 0.0 1.7 0.00 0.00 0.00 70 1017.3
20260506071500 54 264 0.0 1.7 0.00 0.00 0.00 70 1017.4
20260506071000 54 274 0.9 1.7 0.00 0.00 0.00 70 1017.2
20260506070500 54 348 0.9 4.3 0.00 0.00 0.00 70 1017.2
20260506062500 55 315 0.0 3.5 0.00 0.00 0.00 69 1016.9
20260506062001 55 250 0.0 3.5 0.00 0.00 0.00 69 1017.0
20260506061500 55 326 0.9 5.2 0.00 0.00 0.00 69 1017.0
20260506051000 55 246 0.0 1.7 0.00 0.00 0.00 68 1016.8
20260506050500 55 319 0.0 2.6 0.00 0.00 0.00 68 1016.7
20260506045002 56 356 0.0 2.6 0.00 0.00 0.00 68 1016.6
20260506044501 56 353 0.0 0.9 0.00 0.00 0.00 68 1016.5
20260506044000 56 309 0.0 1.7 0.00 0.00 0.00 68 1016.4
20260506043500 56 310 0.0 3.5 0.00 0.00 0.00 68 1016.4
20260506043002 56 1 0.0 3.5 0.00 0.00 0.00 68 1016.3
20260506042500 56 86 0.0 0.9 0.00 0.00 0.00 68 1016.3
20260506042001 56 302 0.0 0.9 0.00 0.00 0.00 68 1016.3
20260506041459 56 315 0.9 1.7 0.00 0.00 0.00 68 1016.1
20260506041001 56 347 0.9 3.5 0.00 0.00 0.00 68 1016.0
20260506040500 56 1 0.9 4.3 0.00 0.00 0.00 68 1016.0
20260506040002 56 327 0.0 4.3 0.00 0.00 0.00 67 1015.9
20260506035501 56 317 0.0 3.5 0.00 0.00 0.00 68 1015.8
20260506035001 56 290 0.9 5.2 0.00 0.00 0.00 68 1015.8
20260506034500 56 349 0.9 5.2 0.00 0.00 0.00 68 1015.7
20260506033500 56 303 0.9 4.3 0.00 0.00 0.00 68 1015.7
20260506032500 56 317 0.9 4.3 0.00 0.00 0.00 68 1015.5
20260506032001 56 308 1.7 5.2 0.00 0.00 0.00 68 1015.4
20260506030959 56 4 0.9 5.2 0.00 0.00 0.00 67 1015.3
20260506030502 56 340 0.9 4.3 0.00 0.00 0.00 67 1015.3
20260506030002 57 46 0.9 5.2 0.00 0.00 0.00 67 1015.2
20260506025501 57 347 1.7 5.2 0.00 0.00 0.00 67 1015.0
20260506025001 57 16 1.7 6.1 0.00 0.00 0.00 67 1014.9
20260506023501 57 134 0.9 6.1 0.00 0.00 0.00 66 1014.9
20260506022502 57 300 1.7 6.1 0.00 0.00 0.00 65 1014.7
20260506022001 57 338 1.7 5.2 0.00 0.00 0.00 65 1014.7
20260506021001 58 356 1.7 11.3 0.00 0.00 0.00 64 1014.6
20260506020002 58 360 2.6 7.8 0.00 0.00 0.00 63 1014.5
20260506015501 58 316 2.6 7.8 0.00 0.00 0.00 63 1014.5
20260506014501 58 289 2.6 7.0 0.00 0.00 0.00 63 1014.5
20260506014001 58 315 2.6 6.1 0.00 0.00 0.00 62 1014.5
20260506013501 58 342 1.7 7.8 0.00 0.00 0.00 61 1014.4
20260506013000 58 292 2.6 7.8 0.00 0.00 0.00 60 1014.5
20260506012001 59 280 2.6 6.1 0.00 0.00 0.00 58 1014.4
20260506011001 60 314 2.6 7.8 0.00 0.00 0.00 57 1014.4
20260506010500 60 231 2.6 7.8 0.00 0.00 0.00 56 1014.4
20260506004959 60 338 2.6 9.6 0.00 0.00 0.00 55 1014.4
20260506004458 60 236 2.6 9.6 0.00 0.00 0.00 55 1014.5
20260506003958 61 230 2.6 6.1 0.00 0.00 0.00 55 1014.4
20260506003459 60 333 3.5 7.8 0.00 0.00 0.00 54 1014.5
20260506002959 60 357 3.5 7.8 0.00 0.00 0.00 54 1014.4
20260506002459 61 127 3.5 9.6 0.00 0.00 0.00 54 1014.4
20260506002000 61 333 3.5 9.6 0.00 0.00 0.00 53 1014.4
20260506001459 61 248 3.5 9.6 0.00 0.00 0.00 52 1014.3
20260506000959 61 3 2.6 7.8 0.00 0.00 0.00 53 1014.3
20260505235959 62 297 2.6 9.6 0.00 0.00 0.00 52 1014.3
20260505235500 62 248 2.6 9.6 0.00 0.00 0.00 52 1014.2
20260505234959 62 115 3.5 7.8 0.00 0.00 0.00 53 1014.3
20260505234459 63 110 2.6 9.6 0.00 0.00 0.00 53 1014.3
20260505233959 63 287 2.6 8.7 0.00 0.00 0.00 55 1014.4
20260505233458 63 345 3.5 8.7 0.00 0.00 0.00 53 1014.4
20260505232959 64 308 2.6 7.8 0.00 0.00 0.00 52 1014.3
20260505232459 64 340 3.5 9.6 0.00 0.00 0.00 51 1014.3
20260505231459 64 307 3.5 9.6 0.00 0.00 0.00 51 1014.3
20260505230959 64 252 2.6 8.7 0.00 0.00 0.00 51 1014.3
20260505230459 64 290 3.5 9.6 0.00 0.00 0.00 51 1014.3
20260505230000 64 288 3.5 12.2 0.00 0.00 0.00 50 1014.4
20260505225500 65 331 3.5 12.2 0.00 0.00 0.00 50 1014.3
20260505224959 65 285 2.6 7.8 0.00 0.00 0.00 49 1014.5
20260505224459 66 345 2.6 9.6 0.00 0.00 0.00 49 1014.3
20260505223959 65 21 2.6 9.6 0.00 0.00 0.00 50 1014.3
20260505223459 66 321 2.6 7.0 0.00 0.00 0.00 48 1014.3
20260505223000 65 236 2.6 7.8 0.00 0.00 0.00 49 1014.3